KD9DD-13 Weather Reports


time (UTC)temp
C
wind
direction
speed
KPH
gust
KPH
rain 1hr
cm
rain 24hr
cm
rain mn
cm
humidity
%
barometer
mb
20260504081027 15 0.0 0.0 0.00 0.03 0.00 82 1007.5
20260504050017 16 335 4.8 4.8 0.00 0.03 0.00 77 1007.1
20260504045041 16 335 4.8 4.8 0.00 0.03 0.03 80 1007.1
20260504044025 16 0.0 0.0 0.00 0.03 0.03 75 1007.1
20260504043049 17 326 4.8 6.4 0.00 0.03 0.03 74 1007.1
20260504042036 17 338 4.8 8.0 0.00 0.03 0.03 69 1007.8
20260504041100 19 355 4.8 11.3 0.00 0.03 0.03 57 1007.7
20260504040024 20 333 4.8 8.0 0.00 0.03 0.03 55 1007.8
20260504035028 20 3 4.8 8.0 0.00 0.03 0.03 55 1007.9
20260504034032 20 331 6.4 8.0 0.00 0.03 0.03 55 1008.0
20260504033058 20 334 4.8 6.4 0.00 0.03 0.03 53 1008.0
20260504032022 20 338 4.8 6.4 0.00 0.03 0.03 52 1008.2
20260504031026 20 344 6.4 8.0 0.00 0.03 0.03 51 1008.2
20260504030031 20 352 6.4 11.3 0.00 0.03 0.03 52 1008.3
20260504025016 21 323 4.8 8.0 0.00 0.03 0.03 51 1008.1
20260504024021 21 329 4.8 8.0 0.00 0.03 0.03 51 1008.1
20260504023025 21 330 4.8 6.4 0.00 0.03 0.03 51 1008.2
20260504022023 21 350 4.8 6.4 0.00 0.03 0.03 52 1008.2
20260504021015 21 0.0 0.0 0.00 0.03 0.03 52 1008.0
20260504020040 21 340 1.6 4.8 0.00 0.03 0.03 50 1007.8
20260504015017 21 0.0 0.0 0.00 0.03 0.03 50 1007.8
20260504014016 21 23 0.0 4.8 0.00 0.03 0.03 49 1007.7
20260504013032 21 13 3.2 6.4 0.00 0.03 0.03 48 1007.7
20260504012018 21 14 3.2 8.0 0.00 0.03 0.03 47 1007.5
20260504011022 22 1 3.2 4.8 0.00 0.03 0.03 47 1007.5
20260504010027 22 47 3.2 6.4 0.00 0.03 0.03 46 1007.3
20260504005051 22 4 3.2 6.4 0.00 0.03 0.03 46 1007.4
20260504004017 22 360 4.8 6.4 0.00 0.03 0.03 44 1007.5
20260504003021 23 23 4.8 8.0 0.00 0.03 0.03 43 1007.5
20260504002025 23 349 3.2 8.0 0.00 0.03 0.03 42 1007.5
20260504001029 23 6 6.4 8.0 0.00 0.03 0.03 42 1007.7
20260504000035 23 328 4.8 8.0 0.00 0.03 0.03 40 1007.7
20260503235019 24 328 3.2 6.4 0.00 0.03 0.03 40 1007.5
20260503234023 24 5 6.4 9.7 0.00 0.03 0.03 38 1007.6
20260503233028 25 358 6.4 11.3 0.00 0.03 0.03 38 1007.8
20260503232032 25 7 6.4 9.7 0.00 0.03 0.03 37 1008.0
20260503231018 25 16 8.0 14.5 0.00 0.03 0.03 37 1007.8
20260503230022 25 357 6.4 12.9 0.00 0.03 0.03 37 1008.2
20260503225046 25 3 8.0 12.9 0.00 0.03 0.03 36 1008.2
20260503224030 25 334 6.4 12.9 0.00 0.03 0.03 36 1008.2
20260503223016 25 47 6.4 11.3 0.00 0.03 0.03 35 1008.3
20260503222020 26 24 6.4 9.7 0.00 0.03 0.03 35 1008.3
20260503221024 26 46 4.8 9.7 0.00 0.03 0.03 36 1008.3
20260503220028 25 352 9.7 12.9 0.00 0.03 0.03 37 1008.3
20260503215033 25 358 9.7 14.5 0.00 0.03 0.03 36 1008.8
20260503214018 25 335 11.3 14.5 0.00 0.03 0.03 37 1008.9
20260503213023 25 360 6.4 11.3 0.00 0.03 0.03 37 1009.0
20260503212027 25 6 11.3 14.5 0.00 0.03 0.03 36 1009.2
20260503211025 25 344 12.9 19.3 0.00 0.03 0.03 35 1009.3
20260503210017 25 341 12.9 19.3 0.00 0.03 0.03 36 1009.2
20260503205021 25 9 9.7 14.5 0.00 0.03 0.03 37 1009.5
20260503204019 25 23 11.3 14.5 0.00 0.03 0.03 36 1009.7
20260503203018 24 13 11.3 14.5 0.00 0.03 0.03 37 1009.9
20260503202016 24 344 12.9 20.9 0.00 0.03 0.03 36 1010.3
20260503201020 24 343 11.3 14.5 0.00 0.03 0.03 36 1010.6
20260503200024 23 26 11.3 14.5 0.00 0.03 0.03 36 1010.9
20260503195048 23 351 14.5 20.9 0.00 0.03 0.03 37 1011.1
20260503194032 23 18 12.9 14.5 0.00 0.03 0.03 37 1011.3
20260503193018 23 338 11.3 14.5 0.00 0.03 0.03 39 1011.5
20260503192023 22 350 11.3 14.5 0.00 0.03 0.03 39 1011.9
20260503191027 22 336 11.3 14.5 0.00 0.03 0.03 39 1012.0
20260503190031 22 338 12.9 14.5 0.00 0.03 0.03 38 1012.4
20260503185017 22 341 11.3 14.5 0.00 0.03 0.03 39 1012.6
20260503184021 22 344 11.3 16.1 0.03 0.03 0.03 39 1012.8
20260503183026 22 27 9.7 11.3 0.03 0.03 0.03 39 1012.9
20260503182030 22 18 9.7 16.1 0.03 0.03 0.03 38 1013.5
20260503181035 21 353 12.9 19.3 0.03 0.03 0.03 39 1014.0
20260503180020 21 344 11.3 16.1 0.03 0.03 0.03 40 1014.4
20260503175024 21 331 11.3 14.5 0.03 0.03 0.03 41 1014.8
20260503174028 21 248 11.3 14.5 0.00 0.00 0.00 41 1014.9
20260503173033 21 0 8.0 9.7 0.00 0.00 0.00 43 1014.9
20260503172039 21 0 8.0 9.7 0.00 0.00 0.00 44 1014.9
20260503171023 20 9 14.5 19.3 0.00 0.00 0.00 44 1015.1